Location: Unspecified
(47.7670°N, 8.8522°E)
Time: 22:34:36
(UTC+01:00)

ISS - Pass Details

Date: 26 January 2019
Orbit: 403 x 411 km, 51.6° (Epoch: 23 February)

Event Time Altitude Azimuth Distance (km) Brightness Sun altitude
Rises 19:09:24 0° 250° (WSW) 2,329 1.5 -19.0°
Reaches altitude 10° 19:11:29 10° 252° (WSW) 1,472 0.2 -19.4°
Maximum altitude 19:14:47 76° 338° (NNW) 428 -3.8 -19.9°
Enters shadow 19:14:50 76° 351° (N) 428 -3.8 -19.9°
